M I D A S
Marine Information and Data Acquisition System
Tripno 1284 of the Zeeleeuw from 2007-06-11 04:43:44 to 2007-06-11 13:47:03
Back to CruiseResearch ActivitiesStationsMapUnderway DataData graphs

EquipmentUnitsComments
TimeDGPSUTC
LatitudeDGPSDM.mWGS84
LongitudeDGPSDM.mWGS84
SpeedMeteo Stationm/sRelative wind speed
DirectionMeteo StationdegRelative wind direction
TemperatureMeteo Stationdeg CelciusAir temperature
PressureMeteo StationPaAtmospheric pressure
HumidityMeteo Station%Relative humidity
Missing or incorrect values are displayed as -999
Metereological data collected by the RV Zeeleeuw from 2007-06-11 04:46:55 to 2007-06-11 13:58:25
                                                                                    Next 1000 lines
Time Latitude Longitude Speed Direction Temperature Pressure Humidity
2007-06-11 04:47:04 51°13.581 2°56.13 2.4 254 14.6 101440 100
2007-06-11 04:47:09 51°13.582 2°56.127 2.5 300 14.6 101440 100
2007-06-11 04:47:15 51°13.583 2°56.123 1.8 246 14.6 101440 100
2007-06-11 04:47:20 51°13.584 2°56.119 1.8 307 14.6 101440 100
2007-06-11 04:47:26 51°13.586 2°56.113 1.3 261 14.6 101440 100
2007-06-11 04:47:31 51°13.587 2°56.108 1.4 310 14.6 101440 100
2007-06-11 04:47:37 51°13.589 2°56.101 2.1 270 14.6 101440 100
2007-06-11 04:47:43 51°13.591 2°56.094 1.9 306 14.6 101440 100
2007-06-11 04:47:48 51°13.593 2°56.087 2.5 28 14.6 101440 100
2007-06-11 04:47:53 51°13.595 2°56.079 2.8 308 14.6 101440 100
2007-06-11 04:47:58 51°13.598 2°56.07 2.2 25 14.6 101440 100
2007-06-11 04:48:03 51°13.6 2°56.061 3.5 58 14.6 101440 100
2007-06-11 04:48:08 51°13.603 2°56.051 4.3 26 14.6 101440 100
2007-06-11 04:48:13 51°13.606 2°56.042 3.4 53 14.6 101440 100
2007-06-11 04:48:18 51°13.609 2°56.031 3 27 14.6 101440 100
2007-06-11 04:48:23 51°13.612 2°56.021 2.8 56 14.6 101440 100
2007-06-11 04:48:29 51°13.617 2°56.008 3.2 23 14.6 101440 100
2007-06-11 04:48:33 51°13.619 2°56 3.4 55 14.6 101440 100
2007-06-11 04:48:38 51°13.623 2°55.989 3.8 22 14.6 101440 100
2007-06-11 04:48:43 51°13.627 2°55.977 2.7 56 14.6 101440 100
2007-06-11 04:48:48 51°13.631 2°55.966 3 25 14.7 101440 100
2007-06-11 04:48:53 51°13.635 2°55.954 4.2 56 14.7 101440 100
2007-06-11 04:48:58 51°13.639 2°55.942 4 20 14.7 101440 100
2007-06-11 04:49:03 51°13.643 2°55.931 3.3 52 14.7 101440 100
2007-06-11 04:49:08 51°13.647 2°55.919 4.4 28 14.8 101440 100
2007-06-11 04:49:14 51°13.651 2°55.905 5.2 56 14.8 101440 100
2007-06-11 04:49:18 51°13.654 2°55.896 5.5 27 14.8 101440 100
2007-06-11 04:49:23 51°13.658 2°55.885 4.5 53 14.8 101440 100
2007-06-11 04:49:28 51°13.661 2°55.873 4.3 28 14.7 101440 100
2007-06-11 04:49:33 51°13.665 2°55.862 5 45 14.7 101440 100
2007-06-11 04:49:39 51°13.668 2°55.849 4.1 270 14.7 101440 100
2007-06-11 04:49:43 51°13.67 2°55.841 3.1 57 14.7 101440 100
2007-06-11 04:49:48 51°13.673 2°55.832 3.6 25 14.7 101440 100
2007-06-11 04:49:53 51°13.675 2°55.822 2.6 57 14.7 101440 100
2007-06-11 04:49:58 51°13.677 2°55.813 1.5 267 14.7 101440 100
2007-06-11 04:50:03 51°13.679 2°55.805 2.3 54 14.7 101440 100
2007-06-11 04:50:08 51°13.68 2°55.796 2.4 27 14.7 101440 100
2007-06-11 04:50:13 51°13.682 2°55.789 3.8 51 14.7 101440 100
2007-06-11 04:50:18 51°13.683 2°55.782 3.6 26 14.7 101440 100
2007-06-11 04:50:23 51°13.684 2°55.776 3.6 300 14.7 101440 100
2007-06-11 04:50:28 51°13.684 2°55.771 2.7 267 14.7 101440 100
2007-06-11 04:50:33 51°13.685 2°55.766 2.5 304 14.7 101440 100
2007-06-11 04:50:37 51°13.686 2°55.761 2.9 28 14.7 101440 100
2007-06-11 04:50:42 51°13.686 2°55.757 2.6 309 14.7 101440 100
2007-06-11 04:50:47 51°13.686 2°55.753 2.9 262 14.7 101440 100
2007-06-11 04:50:52 51°13.686 2°55.749 2.7 58 14.7 101440 100
2007-06-11 04:50:57 51°13.686 2°55.745 2.1 264 14.7 101440 100
2007-06-11 04:51:03 51°13.686 2°55.743 4 307 14.7 101440 100
2007-06-11 04:51:09 51°13.687 2°55.742 2.7 255 14.7 101440 100
2007-06-11 04:51:13 51°13.687 2°55.741 3.6 301 14.7 101440 100
2007-06-11 04:51:18 51°13.687 2°55.741 3.1 26 14.7 101440 100
2007-06-11 04:51:23 51°13.688 2°55.741 3.2 303 14.7 101440 100
2007-06-11 04:51:28 51°13.688 2°55.742 3.1 25 14.7 101440 100
2007-06-11 04:51:33 51°13.689 2°55.743 3.9 304 14.7 101440 100
2007-06-11 04:51:38 51°13.69 2°55.744 3.7 19 14.7 101440 100
2007-06-11 04:51:43 51°13.691 2°55.745 3 308 14.7 101440 100
2007-06-11 04:51:48 51°13.693 2°55.746 2.6 25 14.7 101440 100
2007-06-11 04:51:53 51°13.695 2°55.748 3.3 306 14.7 101440 100
2007-06-11 04:51:58 51°13.697 2°55.749 3.6 321 14.7 101440 100
2007-06-11 04:52:03 51°13.699 2°55.751 3 302 14.7 101440 100
2007-06-11 04:52:08 51°13.701 2°55.752 3 326 14.7 101430 100
2007-06-11 04:52:12 51°13.703 2°55.752 2.8 335 14.7 101430 100
2007-06-11 04:52:17 51°13.706 2°55.753 2.5 321 14.7 101440 100
2007-06-11 04:52:22 51°13.709 2°55.754 2.9 328 14.7 101440 100
2007-06-11 04:52:27 51°13.712 2°55.754 3.2 332 14.7 101430 100
2007-06-11 04:52:32 51°13.715 2°55.753 2.6 339 14.7 101430 100
2007-06-11 04:52:37 51°13.718 2°55.752 2.7 331 14.7 101430 100
2007-06-11 04:52:42 51°13.722 2°55.751 2.9 334 14.7 101430 100
2007-06-11 04:52:46 51°13.725 2°55.749 3.3 339 14.7 101430 100
2007-06-11 04:52:51 51°13.728 2°55.746 3 346 14.7 101430 100
2007-06-11 04:52:56 51°13.732 2°55.743 3.7 347 14.7 101430 100
2007-06-11 04:53:01 51°13.736 2°55.738 3 334 14.7 101430 100
2007-06-11 04:53:06 51°13.741 2°55.733 3.1 336 14.7 101430 100
2007-06-11 04:53:11 51°13.745 2°55.728 3.6 342 14.7 101430 100
2007-06-11 04:53:15 51°13.749 2°55.723 3.6 344 14.7 101430 100
2007-06-11 04:53:20 51°13.754 2°55.717 3.6 340 14.7 101430 100
2007-06-11 04:53:25 51°13.76 2°55.711 3.3 342 14.7 101430 100
2007-06-11 04:53:30 51°13.765 2°55.704 4.1 344 14.7 101430 100
2007-06-11 04:53:35 51°13.771 2°55.698 3.5 343 14.7 101430 100
2007-06-11 04:53:40 51°13.777 2°55.691 4.8 339 14.7 101430 100
2007-06-11 04:53:44 51°13.782 2°55.686 4.4 346 14.7 101430 100
2007-06-11 04:53:49 51°13.789 2°55.679 4.4 341 14.7 101430 100
2007-06-11 04:53:55 51°13.797 2°55.672 4.3 345 14.7 101430 100
2007-06-11 04:53:59 51°13.803 2°55.667 5.2 341 14.7 101430 100
2007-06-11 04:54:04 51°13.81 2°55.661 5.1 343 14.7 101430 100
2007-06-11 04:54:09 51°13.818 2°55.656 4.9 343 14.7 101430 100
2007-06-11 04:54:15 51°13.827 2°55.649 4 345 14.7 101430 100
2007-06-11 04:54:20 51°13.834 2°55.643 5.4 341 14.7 101430 100
2007-06-11 04:54:24 51°13.841 2°55.639 5.5 343 14.7 101430 100
2007-06-11 04:54:29 51°13.848 2°55.633 5.6 339 14.7 101430 100
2007-06-11 04:54:34 51°13.856 2°55.628 5.2 340 14.7 101430 100
2007-06-11 04:54:40 51°13.866 2°55.621 5.5 340 14.7 101430 100
2007-06-11 04:54:44 51°13.872 2°55.617 5.6 340 14.7 101430 100
2007-06-11 04:54:49 51°13.881 2°55.611 5.4 340 14.7 101430 100
2007-06-11 04:54:55 51°13.89 2°55.605 5.6 341 14.7 101430 100
2007-06-11 04:55:00 51°13.899 2°55.599 5.6 340 14.7 101430 100
2007-06-11 04:55:04 51°13.905 2°55.595 5.3 340 14.7 101430 100
2007-06-11 04:55:09 51°13.914 2°55.59 5.7 338 14.7 101430 100
2007-06-11 04:55:14 51°13.922 2°55.584 5.9 339 14.7 101430 100
2007-06-11 04:55:19 51°13.93 2°55.578 6 340 14.7 101430 100
2007-06-11 04:55:24 51°13.939 2°55.573 6.3 343 14.7 101430 100
2007-06-11 04:55:30 51°13.949 2°55.566 5.7 342 14.7 101430 100
2007-06-11 04:55:35 51°13.957 2°55.56 5.2 340 14.7 101430 100
2007-06-11 04:55:39 51°13.964 2°55.556 5.8 337 14.7 101430 100
2007-06-11 04:55:44 51°13.973 2°55.55 5.8 338 14.7 101430 100
2007-06-11 04:55:50 51°13.984 2°55.543 5.4 339 14.7 101430 100
2007-06-11 04:55:55 51°13.994 2°55.536 6.1 343 14.7 101430 100
2007-06-11 04:56:00 51°14.004 2°55.53 6.4 338 14.7 101430 100
2007-06-11 04:56:05 51°14.014 2°55.523 7.7 340 14.7 101430 100
2007-06-11 04:56:10 51°14.024 2°55.517 7 341 14.7 101430 100
2007-06-11 04:56:15 51°14.035 2°55.51 6.6 340 14.7 101430 100
2007-06-11 04:56:19 51°14.044 2°55.505 6.4 339 14.7 101430 100
2007-06-11 04:56:24 51°14.055 2°55.498 6.1 340 14.7 101430 100
2007-06-11 04:56:29 51°14.065 2°55.489 6.4 339 14.7 101430 100
2007-06-11 04:56:35 51°14.078 2°55.479 7 339 14.7 101430 100
2007-06-11 04:56:39 51°14.087 2°55.472 6.7 337 14.7 101430 100
2007-06-11 04:56:44 51°14.097 2°55.462 7.3 339 14.6 101430 100
2007-06-11 04:56:50 51°14.111 2°55.45 7 336 14.6 101430 100
2007-06-11 04:56:55 51°14.122 2°55.44 7.5 340 14.7 101430 100
2007-06-11 04:57:00 51°14.133 2°55.43 7.2 339 14.7 101430 100
2007-06-11 04:57:04 51°14.143 2°55.422 6.6 338 14.7 101430 100
2007-06-11 04:57:10 51°14.156 2°55.408 6.2 339 14.7 101430 100
2007-06-11 04:57:15 51°14.168 2°55.397 6.5 341 14.6 101430 100
2007-06-11 04:57:20 51°14.178 2°55.384 6.3 340 14.6 101430 100
2007-06-11 04:57:25 51°14.189 2°55.371 6.4 340 14.6 101430 100
2007-06-11 04:57:30 51°14.2 2°55.358 6.7 343 14.6 101430 100
2007-06-11 04:57:35 51°14.21 2°55.344 6.8 346 14.6 101430 100
2007-06-11 04:57:40 51°14.221 2°55.329 6.9 346 14.6 101430 100
2007-06-11 04:57:45 51°14.231 2°55.314 7.3 345 14.6 101430 100
2007-06-11 04:57:51 51°14.243 2°55.296 6.9 346 14.6 101430 100
2007-06-11 04:57:56 51°14.253 2°55.279 6.4 346 14.6 101430 100
2007-06-11 04:58:01 51°14.263 2°55.262 6.4 341 14.6 101430 100
2007-06-11 04:58:06 51°14.273 2°55.245 6.5 345 14.7 101430 100
2007-06-11 04:58:11 51°14.283 2°55.227 6.4 344 14.7 101430 100
2007-06-11 04:58:16 51°14.293 2°55.209 6.2 344 14.6 101420 100
2007-06-11 04:58:20 51°14.301 2°55.194 6.4 345 14.6 101420 100
2007-06-11 04:58:25 51°14.31 2°55.175 6.7 341 14.6 101430 100
2007-06-11 04:58:30 51°14.32 2°55.156 6.8 341 14.6 101430 100
2007-06-11 04:58:35 51°14.33 2°55.136 5.5 335 14.6 101430 100
2007-06-11 04:58:40 51°14.339 2°55.116 7.4 341 14.6 101430 100
2007-06-11 04:58:45 51°14.349 2°55.095 7.9 341 14.6 101430 100
2007-06-11 04:58:49 51°14.357 2°55.079 8 343 14.6 101430 100
2007-06-11 04:58:55 51°14.369 2°55.054 8.1 342 14.7 101430 100
2007-06-11 04:58:59 51°14.377 2°55.038 7.5 342 14.7 101430 100
2007-06-11 04:59:04 51°14.387 2°55.017 7.6 341 14.7 101430 100
2007-06-11 04:59:09 51°14.398 2°54.997 8.2 343 14.7 101430 100
2007-06-11 04:59:14 51°14.41 2°54.977 8.2 343 14.7 101420 100
2007-06-11 04:59:19 51°14.422 2°54.957 8.5 344 14.7 101420 100
2007-06-11 04:59:24 51°14.434 2°54.938 8.4 344 14.6 101430 100
2007-06-11 04:59:30 51°14.449 2°54.915 8.8 343 14.6 101430 100
2007-06-11 04:59:34 51°14.46 2°54.899 8.8 342 14.6 101430 100
2007-06-11 04:59:39 51°14.472 2°54.879 8.4 342 14.6 101430 100
2007-06-11 04:59:44 51°14.485 2°54.86 8.6 341 14.6 101420 100
2007-06-11 04:59:50 51°14.5 2°54.835 8.2 342 14.6 101420 100
2007-06-11 04:59:54 51°14.51 2°54.82 9 340 14.6 101420 100
2007-06-11 04:59:59 51°14.523 2°54.8 9.3 340 14.6 101420 100
2007-06-11 05:00:04 51°14.536 2°54.781 8.7 339 14.6 101420 100
2007-06-11 05:00:10 51°14.553 2°54.759 8.5 340 14.6 101420 100
2007-06-11 05:00:15 51°14.566 2°54.741 8.5 339 14.6 101420 100
2007-06-11 05:00:19 51°14.577 2°54.726 8.9 338 14.6 101420 100
2007-06-11 05:00:24 51°14.591 2°54.708 8.3 338 14.6 101420 100
2007-06-11 05:00:29 51°14.605 2°54.69 7.9 340 14.6 101420 100
2007-06-11 05:00:35 51°14.622 2°54.669 8 338 14.6 101430 100
2007-06-11 05:00:39 51°14.634 2°54.655 8.3 337 14.6 101430 100
2007-06-11 05:00:44 51°14.648 2°54.638 8.5 337 14.6 101420 100
2007-06-11 05:00:50 51°14.666 2°54.618 8.6 337 14.6 101420 100
2007-06-11 05:00:55 51°14.68 2°54.601 8.9 338 14.6 101430 100
2007-06-11 05:00:59 51°14.691 2°54.588 9 336 14.6 101430 100
2007-06-11 05:01:04 51°14.706 2°54.571 8.5 336 14.6 101420 100
2007-06-11 05:01:09 51°14.721 2°54.555 8.3 336 14.6 101420 100
2007-06-11 05:01:15 51°14.739 2°54.534 8.4 337 14.5 101420 100
2007-06-11 05:01:20 51°14.753 2°54.517 8.7 337 14.5 101420 100
2007-06-11 05:01:24 51°14.764 2°54.503 8.4 339 14.6 101430 100
2007-06-11 05:01:29 51°14.779 2°54.485 8.8 340 14.6 101430 100
2007-06-11 05:01:34 51°14.793 2°54.467 8.7 341 14.6 101430 100
2007-06-11 05:01:39 51°14.807 2°54.449 8.8 341 14.6 101430 100
2007-06-11 05:01:44 51°14.821 2°54.431 8.1 342 14.6 101420 100
2007-06-11 05:01:49 51°14.835 2°54.413 8.9 339 14.6 101420 100
2007-06-11 05:01:54 51°14.849 2°54.395 9.4 341 14.6 101430 100
2007-06-11 05:01:59 51°14.863 2°54.377 9.9 340 14.6 101430 100
2007-06-11 05:02:04 51°14.877 2°54.36 9.5 341 14.6 101420 100
2007-06-11 05:02:10 51°14.895 2°54.339 9.4 341 14.6 101420 100
2007-06-11 05:02:14 51°14.906 2°54.326 9.4 340 14.5 101430 100
2007-06-11 05:02:19 51°14.921 2°54.309 8.9 339 14.5 101430 100
2007-06-11 05:02:24 51°14.935 2°54.292 8.8 340 14.6 101420 100
2007-06-11 05:02:30 51°14.952 2°54.272 8.7 339 14.6 101420 100
2007-06-11 05:02:35 51°14.966 2°54.254 8.7 339 14.6 101430 100
2007-06-11 05:02:39 51°14.977 2°54.241 8.8 339 14.6 101430 100
2007-06-11 05:02:44 51°14.991 2°54.224 8.7 338 14.5 101420 100
2007-06-11 05:02:50 51°15.008 2°54.204 8.6 338 14.5 101420 100
2007-06-11 05:02:55 51°15.022 2°54.187 8.8 338 14.5 101420 100
2007-06-11 05:02:59 51°15.034 2°54.174 8.8 337 14.5 101420 100
2007-06-11 05:03:04 51°15.049 2°54.157 8.3 337 14.5 101420 100
2007-06-11 05:03:10 51°15.066 2°54.137 8.7 339 14.5 101420 100
2007-06-11 05:03:15 51°15.081 2°54.121 8.8 337 14.5 101430 100
2007-06-11 05:03:19 51°15.092 2°54.107 9.1 337 14.5 101430 100
2007-06-11 05:03:24 51°15.107 2°54.09 9.2 337 14.5 101430 100
2007-06-11 05:03:29 51°15.121 2°54.073 8.6 339 14.5 101430 100
2007-06-11 05:03:35 51°15.139 2°54.053 8.6 338 14.5 101430 100
2007-06-11 05:03:39 51°15.151 2°54.041 9.2 338 14.5 101430 100
2007-06-11 05:03:44 51°15.166 2°54.025 8.4 338 14.5 101430 100
2007-06-11 05:03:49 51°15.181 2°54.009 8.7 337 14.5 101430 100
2007-06-11 05:03:55 51°15.199 2°53.991 9.1 336 14.5 101420 100
2007-06-11 05:04:00 51°15.214 2°53.975 9.7 336 14.5 101420 100
2007-06-11 05:04:04 51°15.226 2°53.963 9.6 336 14.5 101430 100
2007-06-11 05:04:09 51°15.241 2°53.948 9.8 336 14.5 101430 100
2007-06-11 05:04:14 51°15.257 2°53.932 9.4 335 14.5 101430 100
2007-06-11 05:04:19 51°15.272 2°53.916 9.6 337 14.5 101430 100
2007-06-11 05:04:24 51°15.287 2°53.9 9.6 336 14.5 101430 100
2007-06-11 05:04:30 51°15.304 2°53.88 9.4 337 14.5 101430 100
2007-06-11 05:04:34 51°15.316 2°53.867 9.4 337 14.5 101420 100
2007-06-11 05:04:39 51°15.331 2°53.851 9.4 337 14.5 101420 100
2007-06-11 05:04:44 51°15.345 2°53.833 9.1 338 14.5 101420 100
2007-06-11 05:04:50 51°15.363 2°53.813 9.1 337 14.5 101420 100
2007-06-11 05:04:54 51°15.374 2°53.799 8.4 336 14.5 101420 100
2007-06-11 05:04:59 51°15.389 2°53.783 9.6 336 14.5 101420 100
2007-06-11 05:05:04 51°15.404 2°53.766 9.8 336 14.5 101420 100
2007-06-11 05:05:10 51°15.422 2°53.747 9.4 336 14.5 101420 100
2007-06-11 05:05:15 51°15.436 2°53.73 9.2 336 14.4 101420 100
2007-06-11 05:05:19 51°15.448 2°53.718 9.4 335 14.4 101420 100
2007-06-11 05:05:24 51°15.463 2°53.702 9.1 335 14.5 101420 100
2007-06-11 05:05:30 51°15.482 2°53.684 8.7 336 14.5 101420 100
2007-06-11 05:05:35 51°15.497 2°53.67 9.3 336 14.5 101420 100
2007-06-11 05:05:39 51°15.509 2°53.658 9.4 336 14.5 101420 100
2007-06-11 05:05:44 51°15.525 2°53.644 9.4 336 14.4 101420 100
2007-06-11 05:05:49 51°15.54 2°53.63 8.6 334 14.4 101420 100
2007-06-11 05:05:55 51°15.559 2°53.613 9.1 334 14.4 101430 100
2007-06-11 05:05:59 51°15.572 2°53.603 8.7 336 14.4 101430 100
2007-06-11 05:06:04 51°15.588 2°53.589 8.8 335 14.4 101420 100
2007-06-11 05:06:09 51°15.603 2°53.577 8.3 336 14.4 101420 100
2007-06-11 05:06:14 51°15.619 2°53.564 8.5 335 14.4 101420 100
2007-06-11 05:06:20 51°15.638 2°53.549 8.8 334 14.4 101420 100
2007-06-11 05:06:24 51°15.651 2°53.538 9 335 14.4 101420 100
2007-06-11 05:06:29 51°15.667 2°53.525 9 336 14.4 101420 100
2007-06-11 05:06:34 51°15.683 2°53.512 9.5 338 14.4 101420 100
2007-06-11 05:06:39 51°15.699 2°53.499 9.6 337 14.4 101420 100
2007-06-11 05:06:44 51°15.714 2°53.486 9.1 337 14.4 101420 100
2007-06-11 05:06:49 51°15.73 2°53.472 8.9 336 14.4 101420 100
2007-06-11 05:06:55 51°15.749 2°53.455 8.7 337 14.4 101420 100
2007-06-11 05:06:59 51°15.761 2°53.444 8.7 334 14.4 101420 100
2007-06-11 05:07:04 51°15.777 2°53.43 8.8 334 14.4 101420 100
2007-06-11 05:07:10 51°15.795 2°53.413 9.5 335 14.4 101420 100
2007-06-11 05:07:15 51°15.811 2°53.399 9.7 335 14.4 101420 100
2007-06-11 05:07:19 51°15.823 2°53.387 9.5 335 14.4 101420 100
2007-06-11 05:07:24 51°15.839 2°53.374 8.9 333 14.4 101420 100
2007-06-11 05:07:30 51°15.858 2°53.358 9.2 335 14.4 101420 100
2007-06-11 05:07:35 51°15.873 2°53.344 9.1 334 14.4 101420 100
2007-06-11 05:07:39 51°15.886 2°53.334 9.5 334 14.4 101420 100
2007-06-11 05:07:44 51°15.902 2°53.321 9.6 335 14.4 101420 100
2007-06-11 05:07:49 51°15.918 2°53.309 9.3 336 14.4 101420 100
2007-06-11 05:07:55 51°15.937 2°53.294 10 338 14.4 101420 100
2007-06-11 05:07:59 51°15.95 2°53.284 9.1 338 14.4 101420 100
2007-06-11 05:08:04 51°15.965 2°53.271 9.5 336 14.4 101420 100
2007-06-11 05:08:09 51°15.981 2°53.258 8.8 339 14.4 101420 100
2007-06-11 05:08:14 51°15.997 2°53.244 8.9 340 14.4 101420 100
2007-06-11 05:08:20 51°16.015 2°53.228 8.9 340 14.4 101420 100
2007-06-11 05:08:24 51°16.028 2°53.217 8.4 340 14.4 101420 100
2007-06-11 05:08:29 51°16.044 2°53.204 9 338 14.4 101420 100
2007-06-11 05:08:35 51°16.062 2°53.188 9.5 339 14.4 101420 100
2007-06-11 05:08:40 51°16.078 2°53.176 9.1 339 14.4 101420 100
2007-06-11 05:08:44 51°16.091 2°53.165 8.7 339 14.4 101420 100
2007-06-11 05:08:49 51°16.107 2°53.152 9.2 338 14.4 101420 100
2007-06-11 05:08:54 51°16.122 2°53.139 9.9 338 14.4 101420 100
2007-06-11 05:08:59 51°16.138 2°53.127 9.5 336 14.4 101420 100
2007-06-11 05:09:04 51°16.154 2°53.114 9.6 337 14.4 101420 100
2007-06-11 05:09:10 51°16.173 2°53.099 9.7 336 14.4 101420 100
2007-06-11 05:09:14 51°16.186 2°53.088 9.4 334 14.4 101420 100
2007-06-11 05:09:19 51°16.201 2°53.076 9.9 337 14.4 101420 100
2007-06-11 05:09:24 51°16.217 2°53.063 9.4 337 14.4 101420 100
2007-06-11 05:09:30 51°16.236 2°53.047 9.7 337 14.4 101420 100
2007-06-11 05:09:35 51°16.252 2°53.035 9.4 335 14.4 101420 100
2007-06-11 05:09:39 51°16.265 2°53.025 9.5 336 14.4 101420 100
2007-06-11 05:09:44 51°16.281 2°53.013 9.5 335 14.4 101420 100
2007-06-11 05:09:49 51°16.297 2°53.001 9.4 336 14.4 101420 100
2007-06-11 05:09:55 51°16.316 2°52.988 9.5 337 14.4 101420 100
2007-06-11 05:09:59 51°16.329 2°52.979 9.4 336 14.4 101420 100
2007-06-11 05:10:04 51°16.346 2°52.968 8.8 336 14.3 101420 100
2007-06-11 05:10:09 51°16.362 2°52.957 8.4 337 14.3 101420 100
2007-06-11 05:10:15 51°16.381 2°52.944 8.8 336 14.3 101420 100
2007-06-11 05:10:19 51°16.394 2°52.934 8.7 336 14.3 101420 100
2007-06-11 05:10:24 51°16.41 2°52.923 9 337 14.4 101420 100
2007-06-11 05:10:29 51°16.426 2°52.912 8.7 337 14.4 101420 100
2007-06-11 05:10:34 51°16.443 2°52.901 8.4 337 14.3 101420 100
2007-06-11 05:10:40 51°16.462 2°52.887 9 337 14.3 101420 100
2007-06-11 05:10:44 51°16.475 2°52.878 8.4 337 14.3 101430 100
2007-06-11 05:10:49 51°16.491 2°52.867 9.2 337 14.3 101430 100
2007-06-11 05:10:54 51°16.507 2°52.855 9.6 339 14.3 101420 100
2007-06-11 05:11:00 51°16.526 2°52.841 9.5 337 14.3 101420 100
2007-06-11 05:11:04 51°16.539 2°52.832 10 337 14.4 101420 100
2007-06-11 05:11:09 51°16.556 2°52.821 9.1 337 14.4 101420 100
2007-06-11 05:11:14 51°16.572 2°52.81 8.8 338 14.4 101430 100
2007-06-11 05:11:19 51°16.588 2°52.799 9.5 338 14.4 101430 100
2007-06-11 05:11:24 51°16.604 2°52.788 9 338 14.4 101420 100
2007-06-11 05:11:30 51°16.623 2°52.774 9.3 337 14.4 101420 100
2007-06-11 05:11:35 51°16.639 2°52.763 9.1 337 14.4 101420 100
2007-06-11 05:11:39 51°16.652 2°52.754 9 338 14.4 101420 100
2007-06-11 05:11:44 51°16.668 2°52.743 9.1 339 14.3 101430 100
2007-06-11 05:11:50 51°16.688 2°52.73 8.5 339 14.3 101430 100
2007-06-11 05:11:55 51°16.704 2°52.719 9 338 14.4 101420 100
2007-06-11 05:11:59 51°16.716 2°52.71 9.4 338 14.4 101420 100
2007-06-11 05:12:04 51°16.733 2°52.698 9.6 336 14.3 101430 100
2007-06-11 05:12:09 51°16.749 2°52.687 10.2 337 14.3 101430 100
2007-06-11 05:12:15 51°16.768 2°52.674 10.1 336 14.3 101430 100
2007-06-11 05:12:19 51°16.78 2°52.665 9.8 338 14.3 101430 100
2007-06-11 05:12:24 51°16.796 2°52.655 9.8 338 14.3 101430 100
2007-06-11 05:12:29 51°16.812 2°52.645 9.6 338 14.3 101430 100
2007-06-11 05:12:35 51°16.832 2°52.633 9.7 338 14.3 101430 100
2007-06-11 05:12:40 51°16.848 2°52.624 9.6 337 14.3 101430 100
2007-06-11 05:12:44 51°16.861 2°52.616 9.5 337 14.3 101430 100
2007-06-11 05:12:49 51°16.877 2°52.608 9.2 337 14.3 101430 100
2007-06-11 05:12:55 51°16.897 2°52.598 9.3 338 14.3 101430 100
2007-06-11 05:13:00 51°16.913 2°52.589 8.8 336 14.3 101430 100
2007-06-11 05:13:04 51°16.927 2°52.583 9 336 14.3 101430 100
2007-06-11 05:13:09 51°16.943 2°52.574 8.5 337 14.3 101430 100
2007-06-11 05:13:14 51°16.959 2°52.565 8.3 337 14.3 101430 100
2007-06-11 05:13:19 51°16.976 2°52.557 9.2 336 14.3 101430 100
2007-06-11 05:13:24 51°16.992 2°52.547 9 336 14.3 101430 100
2007-06-11 05:13:30 51°17.012 2°52.537 8.6 337 14.3 101430 100
2007-06-11 05:13:34 51°17.025 2°52.529 8.8 335 14.3 101430 100
2007-06-11 05:13:39 51°17.041 2°52.521 9.8 336 14.3 101430 100
2007-06-11 05:13:44 51°17.057 2°52.512 9.2 337 14.3 101430 100
2007-06-11 05:13:50 51°17.077 2°52.502 9.2 335 14.3 101430 100
2007-06-11 05:13:55 51°17.094 2°52.494 9.3 335 14.3 101430 100
2007-06-11 05:13:59 51°17.107 2°52.487 9.3 336 14.3 101430 100
2007-06-11 05:14:04 51°17.123 2°52.478 9.2 336 14.3 101430 100
2007-06-11 05:14:10 51°17.142 2°52.467 9.8 335 14.3 101430 100
2007-06-11 05:14:15 51°17.159 2°52.458 9.4 334 14.3 101430 100
2007-06-11 05:14:19 51°17.172 2°52.451 9.5 335 14.3 101430 100
2007-06-11 05:14:24 51°17.188 2°52.441 9.6 336 14.3 101430 100
2007-06-11 05:14:30 51°17.207 2°52.43 9.4 336 14.3 101430 100
2007-06-11 05:14:35 51°17.224 2°52.42 9 337 14.3 101430 100
2007-06-11 05:14:39 51°17.237 2°52.413 9.5 334 14.3 101430 100
2007-06-11 05:14:44 51°17.253 2°52.404 9.3 333 14.3 101430 100
2007-06-11 05:14:49 51°17.269 2°52.395 9.8 333 14.3 101430 100
2007-06-11 05:14:55 51°17.289 2°52.383 9.7 334 14.3 101430 100
2007-06-11 05:15:00 51°17.305 2°52.375 9.2 335 14.3 101430 100
2007-06-11 05:15:04 51°17.318 2°52.367 9.5 335 14.3 101430 100
2007-06-11 05:15:09 51°17.335 2°52.359 8.6 335 14.3 101430 100
2007-06-11 05:15:14 51°17.352 2°52.351 8.9 337 14.3 101430 100
2007-06-11 05:15:20 51°17.371 2°52.34 8.8 336 14.3 101430 100
2007-06-11 05:15:24 51°17.384 2°52.332 8.9 335 14.2 101430 100
2007-06-11 05:15:29 51°17.401 2°52.323 8.4 334 14.2 101430 100
2007-06-11 05:15:34 51°17.417 2°52.313 9 337 14.3 101440 100
2007-06-11 05:15:40 51°17.436 2°52.302 10.3 336 14.3 101440 100
2007-06-11 05:15:44 51°17.45 2°52.295 10 339 14.3 101440 100
2007-06-11 05:15:50 51°17.469 2°52.285 9.7 339 14.3 101440 100
2007-06-11 05:15:55 51°17.486 2°52.276 9.8 338 14.3 101430 100
2007-06-11 05:15:59 51°17.499 2°52.269 9.4 339 14.3 101430 100
2007-06-11 05:16:04 51°17.515 2°52.26 9.7 337 14.3 101430 100
2007-06-11 05:16:10 51°17.535 2°52.248 9.7 338 14.3 101430 100
2007-06-11 05:16:15 51°17.551 2°52.239 9.4 339 14.3 101430 100
2007-06-11 05:16:19 51°17.564 2°52.232 9.5 339 14.3 101430 100
2007-06-11 05:16:24 51°17.58 2°52.223 9 339 14.3 101430 100
2007-06-11 05:16:30 51°17.6 2°52.212 9.1 339 14.3 101430 100
2007-06-11 05:16:35 51°17.616 2°52.203 9.1 338 14.3 101430 100
2007-06-11 05:16:39 51°17.629 2°52.196 8.9 337 14.3 101430 100
2007-06-11 05:16:44 51°17.645 2°52.187 9.1 337 14.3 101430 100
2007-06-11 05:16:49 51°17.661 2°52.178 8.4 337 14.3 101430 100
2007-06-11 05:16:55 51°17.681 2°52.168 8.6 338 14.3 101430 100
2007-06-11 05:16:59 51°17.694 2°52.161 9.2 337 14.3 101430 100
2007-06-11 05:17:04 51°17.71 2°52.152 9.2 339 14.3 101430 100
2007-06-11 05:17:09 51°17.726 2°52.143 8.6 338 14.3 101430 100
2007-06-11 05:17:15 51°17.746 2°52.133 9.1 338 14.3 101430 100
2007-06-11 05:17:20 51°17.763 2°52.125 8.8 338 14.3 101430 100
2007-06-11 05:17:24 51°17.776 2°52.118 8.7 337 14.3 101430 100
2007-06-11 05:17:29 51°17.792 2°52.11 8.7 338 14.3 101430 100
2007-06-11 05:17:35 51°17.812 2°52.1 9.1 338 14.3 101430 100
2007-06-11 05:17:39 51°17.825 2°52.093 9.1 338 14.3 101430 100
2007-06-11 05:17:44 51°17.841 2°52.084 9.2 339 14.3 101430 100
2007-06-11 05:17:50 51°17.861 2°52.074 9.1 339 14.3 101430 100
2007-06-11 05:17:54 51°17.874 2°52.066 9 339 14.3 101440 100
2007-06-11 05:17:59 51°17.89 2°52.057 8.7 340 14.3 101440 100
2007-06-11 05:18:04 51°17.907 2°52.048 8.3 340 14.3 101430 100
2007-06-11 05:18:10 51°17.926 2°52.038 8.5 339 14.3 101430 100
2007-06-11 05:18:15 51°17.943 2°52.029 8.3 340 14.3 101430 100
2007-06-11 05:18:19 51°17.955 2°52.022 8.5 339 14.3 101430 100
2007-06-11 05:18:24 51°17.972 2°52.014 8.6 339 14.3 101430 100
2007-06-11 05:18:30 51°17.991 2°52.004 8.6 340 14.3 101430 100
2007-06-11 05:18:35 51°18.008 2°51.995 8.3 340 14.3 101430 100
2007-06-11 05:18:39 51°18.021 2°51.988 9.1 336 14.3 101430 100
2007-06-11 05:18:44 51°18.038 2°51.98 9.4 337 14.3 101430 100
2007-06-11 05:18:50 51°18.058 2°51.969 9.4 337 14.3 101430 100
2007-06-11 05:18:55 51°18.074 2°51.96 9.5 337 14.3 101430 100
2007-06-11 05:18:59 51°18.087 2°51.953 8.9 338 14.3 101430 100
2007-06-11 05:19:04 51°18.104 2°51.945 8.8 339 14.3 101440 100
2007-06-11 05:19:10 51°18.123 2°51.934 8.5 337 14.3 101440 100
2007-06-11 05:19:15 51°18.14 2°51.926 9.1 338 14.3 101440 100
2007-06-11 05:19:19 51°18.153 2°51.919 9.8 338 14.3 101440 100
2007-06-11 05:19:24 51°18.169 2°51.91 9.4 340 14.3 101430 100
2007-06-11 05:19:29 51°18.186 2°51.902 9.4 341 14.3 101430 100
2007-06-11 05:19:35 51°18.206 2°51.891 9.2 341 14.3 101430 100
2007-06-11 05:19:40 51°18.222 2°51.883 8.8 340 14.3 101430 100
2007-06-11 05:19:44 51°18.236 2°51.876 8.9 339 14.3 101430 100
2007-06-11 05:19:49 51°18.252 2°51.867 8.6 340 14.3 101430 100
2007-06-11 05:19:55 51°18.272 2°51.857 9 339 14.3 101420 100
2007-06-11 05:20:00 51°18.289 2°51.849 9.5 339 14.3 101420 100
2007-06-11 05:20:04 51°18.302 2°51.842 8.8 340 14.3 101430 100
2007-06-11 05:20:09 51°18.318 2°51.833 8.8 339 14.3 101430 100
2007-06-11 05:20:14 51°18.335 2°51.824 8.3 339 14.3 101430 100
2007-06-11 05:20:19 51°18.352 2°51.816 9.3 339 14.3 101430 100
2007-06-11 05:20:24 51°18.368 2°51.807 9.2 339 14.3 101430 100
2007-06-11 05:20:30 51°18.388 2°51.797 8.8 341 14.3 101430 100
2007-06-11 05:20:34 51°18.402 2°51.79 9.1 340 14.3 101430 100
2007-06-11 05:20:39 51°18.418 2°51.782 9.1 339 14.3 101430 100
2007-06-11 05:20:44 51°18.435 2°51.773 8.4 338 14.3 101430 100
2007-06-11 05:20:50 51°18.455 2°51.763 8.5 339 14.3 101430 100
2007-06-11 05:20:55 51°18.471 2°51.754 8.1 339 14.3 101430 100
2007-06-11 05:20:59 51°18.485 2°51.747 9 338 14.3 101430 100
2007-06-11 05:21:04 51°18.501 2°51.738 8.8 338 14.3 101430 100
2007-06-11 05:21:10 51°18.521 2°51.728 9.3 339 14.3 101430 100
2007-06-11 05:21:15 51°18.538 2°51.719 8.7 340 14.3 101430 100
2007-06-11 05:21:19 51°18.551 2°51.712 9 341 14.3 101430 100
2007-06-11 05:21:24 51°18.568 2°51.704 9.8 338 14.3 101430 100
2007-06-11 05:21:29 51°18.585 2°51.695 9.6 340 14.3 101430 100
2007-06-11 05:21:35 51°18.604 2°51.685 9.4 340 14.3 101430 100
2007-06-11 05:21:39 51°18.618 2°51.677 9.2 340 14.3 101430 100
2007-06-11 05:21:44 51°18.635 2°51.669 9.2 340 14.3 101430 100
2007-06-11 05:21:49 51°18.651 2°51.66 9.2 340 14.3 101430 100
2007-06-11 05:21:54 51°18.667 2°51.651 9.7 341 14.3 101430 100
2007-06-11 05:22:00 51°18.687 2°51.64 9.5 340 14.3 101430 100
2007-06-11 05:22:04 51°18.701 2°51.632 9.7 341 14.3 101430 100
2007-06-11 05:22:09 51°18.717 2°51.623 10.1 341 14.3 101430 100
2007-06-11 05:22:14 51°18.734 2°51.614 9.2 340 14.3 101430 100
2007-06-11 05:22:19 51°18.75 2°51.605 9.2 340 14.3 101430 100
2007-06-11 05:22:25 51°18.77 2°51.595 9.6 340 14.3 101430 100
2007-06-11 05:22:29 51°18.784 2°51.588 9.3 340 14.3 101430 100
2007-06-11 05:22:34 51°18.8 2°51.579 9.6 340 14.3 101430 100
2007-06-11 05:22:39 51°18.817 2°51.57 9.4 339 14.3 101430 100
2007-06-11 05:22:44 51°18.833 2°51.562 9.7 339 14.3 101430 100
2007-06-11 05:22:50 51°18.853 2°51.551 9.5 340 14.3 101430 100
2007-06-11 05:22:55 51°18.869 2°51.542 9.3 340 14.3 101430 100
2007-06-11 05:22:59 51°18.882 2°51.535 8.9 339 14.3 101430 100
2007-06-11 05:23:04 51°18.899 2°51.525 9 338 14.3 101430 100
2007-06-11 05:23:10 51°18.919 2°51.515 9.5 338 14.3 101430 100
2007-06-11 05:23:15 51°18.935 2°51.506 9 342 14.3 101430 100
2007-06-11 05:23:19 51°18.948 2°51.499 9.3 341 14.3 101430 100
2007-06-11 05:23:24 51°18.965 2°51.49 8.9 340 14.3 101430 100
2007-06-11 05:23:29 51°18.981 2°51.481 9 338 14.3 101430 100
2007-06-11 05:23:35 51°19.001 2°51.47 9.1 339 14.3 101430 100
2007-06-11 05:23:39 51°19.014 2°51.462 9.6 343 14.3 101430 100
2007-06-11 05:23:44 51°19.03 2°51.453 9.5 341 14.3 101430 100
2007-06-11 05:23:49 51°19.047 2°51.444 9.5 341 14.3 101430 100
2007-06-11 05:23:55 51°19.067 2°51.434 9.8 341 14.3 101430 100
2007-06-11 05:24:00 51°19.083 2°51.425 9.8 284 14.3 101430 100
2007-06-11 05:24:04 51°19.097 2°51.419 9.8 342 14.3 101430 100
2007-06-11 05:24:09 51°19.113 2°51.41 9.5 343 14.3 101430 100
2007-06-11 05:24:15 51°19.133 2°51.399 10.1 342 14.3 101430 100
2007-06-11 05:24:20 51°19.149 2°51.39 9.6 341 14.3 101430 100
2007-06-11 05:24:24 51°19.163 2°51.382 9.5 341 14.3 101430 100
2007-06-11 05:24:29 51°19.179 2°51.373 9.4 341 14.3 101430 100
2007-06-11 05:24:34 51°19.196 2°51.364 9.5 341 14.3 101420 100
2007-06-11 05:24:39 51°19.212 2°51.356 8.9 341 14.3 101420 100
2007-06-11 05:24:44 51°19.229 2°51.347 8.9 341 14.3 101420 100
2007-06-11 05:24:50 51°19.249 2°51.336 9.1 342 14.3 101420 100
2007-06-11 05:24:54 51°19.262 2°51.329 9 342 14.2 101420 100
2007-06-11 05:24:59 51°19.278 2°51.32 9.6 340 14.2 101420 100
2007-06-11 05:25:04 51°19.295 2°51.311 9.7 340 14.2 101430 100
2007-06-11 05:25:10 51°19.315 2°51.301 9.3 339 14.2 101430 100
2007-06-11 05:25:15 51°19.332 2°51.292 9 340 14.2 101430 100
2007-06-11 05:25:19 51°19.345 2°51.285 8.9 341 14.2 101430 100
2007-06-11 05:25:24 51°19.362 2°51.275 9.4 340 14.2 101430 100
2007-06-11 05:25:30 51°19.382 2°51.264 9.4 341 14.2 101430 100
2007-06-11 05:25:35 51°19.398 2°51.255 9.8 338 14.2 101420 100
2007-06-11 05:25:39 51°19.411 2°51.248 9.8 338 14.2 101420 100
2007-06-11 05:25:44 51°19.428 2°51.239 10 338 14.2 101430 100
2007-06-11 05:25:50 51°19.448 2°51.229 9.5 339 14.2 101430 100
2007-06-11 05:25:55 51°19.465 2°51.222 9.5 339 14.2 101430 100
2007-06-11 05:25:59 51°19.478 2°51.216 9.4 278 14.2 101430 100
2007-06-11 05:26:04 51°19.495 2°51.21 9.4 336 14.2 101420 100
2007-06-11 05:26:09 51°19.511 2°51.204 10.1 336 14.2 101420 100
2007-06-11 05:26:15 51°19.532 2°51.197 10.1 336 14.2 101430 100
2007-06-11 05:26:20 51°19.549 2°51.19 10.1 337 14.2 101430 100
2007-06-11 05:26:24 51°19.562 2°51.185 9.7 337 14.2 101430 100
2007-06-11 05:26:29 51°19.579 2°51.178 9.6 337 14.2 101430 100
2007-06-11 05:26:34 51°19.596 2°51.171 9.7 337 14.2 101430 100
2007-06-11 05:26:40 51°19.617 2°51.164 9.7 337 14.2 101430 100
2007-06-11 05:26:44 51°19.63 2°51.158 9.7 337 14.2 101430 100
2007-06-11 05:26:49 51°19.647 2°51.151 9.3 337 14.2 101430 100
2007-06-11 05:26:54 51°19.664 2°51.144 9.5 337 14.2 101430 100
2007-06-11 05:26:59 51°19.681 2°51.138 9.4 337 14.2 101430 100
2007-06-11 05:27:04 51°19.698 2°51.132 9.3 337 14.2 101430 100
2007-06-11 05:27:10 51°19.718 2°51.125 9.3 337 14.2 101430 100
2007-06-11 05:27:15 51°19.735 2°51.118 9.1 337 14.2 101430 100
2007-06-11 05:27:19 51°19.749 2°51.113 9.6 336 14.2 101430 100
2007-06-11 05:27:24 51°19.765 2°51.106 9.2 336 14.2 101430 100
2007-06-11 05:27:30 51°19.785 2°51.098 9.1 337 14.2 101430 100
2007-06-11 05:27:35 51°19.802 2°51.092 8.8 337 14.2 101430 100
2007-06-11 05:27:39 51°19.816 2°51.086 9 337 14.2 101430 100
2007-06-11 05:27:44 51°19.833 2°51.08 8.7 337 14.2 101430 100
2007-06-11 05:27:50 51°19.853 2°51.073 9.6 338 14.2 101430 100
2007-06-11 05:27:55 51°19.87 2°51.067 8.7 338 14.2 101430 100
2007-06-11 05:27:59 51°19.884 2°51.062 8.4 279 14.2 101430 100
2007-06-11 05:28:04 51°19.901 2°51.055 9 337 14.2 101440 100
2007-06-11 05:28:10 51°19.922 2°51.047 9.5 339 14.2 101440 100
2007-06-11 05:28:15 51°19.939 2°51.039 9.3 335 14.2 101440 100
2007-06-11 05:28:19 51°19.953 2°51.033 10.1 336 14.2 101440 100
2007-06-11 05:28:24 51°19.969 2°51.026 9.7 335 14.2 101440 100
2007-06-11 05:28:29 51°19.986 2°51.019 9.5 333 14.2 101440 100
2007-06-11 05:28:35 51°20.006 2°51.011 9.9 333 14.2 101430 100
2007-06-11 05:28:40 51°20.023 2°51.004 9.9 334 14.2 101430 100
2007-06-11 05:28:44 51°20.037 2°51 9.8 334 14.2 101430 100
2007-06-11 05:28:49 51°20.054 2°50.994 9.6 335 14.2 101430 100
2007-06-11 05:28:54 51°20.071 2°50.987 9.6 334 14.2 101440 100
2007-06-11 05:28:59 51°20.088 2°50.98 9.5 333 14.2 101440 100
2007-06-11 05:29:04 51°20.104 2°50.973 9.4 334 14.2 101430 100
2007-06-11 05:29:11 51°20.128 2°50.963 10 334 14.2 101430 100
2007-06-11 05:29:14 51°20.139 2°50.958 9.6 335 14.1 101440 100
2007-06-11 05:29:19 51°20.155 2°50.951 9.4 333 14.1 101440 100
2007-06-11 05:29:24 51°20.172 2°50.943 9.1 333 14.1 101440 100
2007-06-11 05:29:28 51°20.185 2°50.937 10 337 14.1 101440 100
2007-06-11 05:29:34 51°20.205 2°50.928 9.5 335 14.1 101440 100
2007-06-11 05:29:39 51°20.222 2°50.921 9.7 334 14.1 101440 100
2007-06-11 05:29:44 51°20.239 2°50.915 9.6 335 14.1 101440 100
2007-06-11 05:29:49 51°20.256 2°50.908 9.1 336 14.1 101440 100
2007-06-11 05:29:54 51°20.272 2°50.901 9.4 336 14.1 101440 100
2007-06-11 05:29:59 51°20.289 2°50.894 9.5 281 14.1 101440 100
2007-06-11 05:30:04 51°20.306 2°50.887 9.7 337 14.1 101440 100
2007-06-11 05:30:09 51°20.322 2°50.88 9.7 337 14.1 101440 100
2007-06-11 05:30:14 51°20.339 2°50.872 9.4 334 14.1 101430 100
2007-06-11 05:30:19 51°20.356 2°50.865 8.9 336 14.1 101430 100
2007-06-11 05:30:24 51°20.373 2°50.857 9.1 335 14.1 101440 100
2007-06-11 05:30:30 51°20.393 2°50.848 9 335 14.1 101440 100
2007-06-11 05:30:34 51°20.406 2°50.843 8.4 336 14.1 101440 100
2007-06-11 05:30:39 51°20.424 2°50.836 8.5 335 14.1 101440 100
2007-06-11 05:30:44 51°20.442 2°50.829 8.6 334 14.1 101440 100
2007-06-11 05:30:49 51°20.459 2°50.822 8.7 333 14.1 101440 100
2007-06-11 05:30:54 51°20.476 2°50.814 9.7 334 14.1 101440 100
2007-06-11 05:30:59 51°20.493 2°50.807 9.8 335 14.1 101440 100
2007-06-11 05:31:04 51°20.51 2°50.799 8.7 337 14.1 101440 100
2007-06-11 05:31:09 51°20.527 2°50.791 9.3 337 14.1 101440 100
2007-06-11 05:31:14 51°20.544 2°50.784 9.6 336 14.1 101440 100
2007-06-11 05:31:19 51°20.561 2°50.776 9.2 336 14.1 101440 100
2007-06-11 05:31:24 51°20.578 2°50.769 9.2 335 14.1 101430 100
2007-06-11 05:31:29 51°20.595 2°50.761 9.4 335 14.1 101430 100
2007-06-11 05:31:34 51°20.613 2°50.754 9.7 333 14.1 101440 100
2007-06-11 05:31:39 51°20.63 2°50.746 9.8 335 14.1 101440 100
2007-06-11 05:31:44 51°20.647 2°50.739 9.7 335 14.1 101440 100
2007-06-11 05:31:49 51°20.664 2°50.731 9.8 334 14.1 101440 100
2007-06-11 05:31:54 51°20.681 2°50.723 10 334 14.1 101440 100
2007-06-11 05:31:59 51°20.698 2°50.715 9.5 282 14.1 101440 100
2007-06-11 05:32:04 51°20.715 2°50.708 9.4 335 14.1 101440 100
2007-06-11 05:32:08 51°20.729 2°50.703 9.7 333 14.1 101440 100
2007-06-11 05:32:14 51°20.749 2°50.695 9.2 332 14.2 101440 100
2007-06-11 05:32:19 51°20.767 2°50.689 9.3 334 14.2 101440 100
2007-06-11 05:32:24 51°20.784 2°50.684 9.2 334 14.1 101430 100
2007-06-11 05:32:29 51°20.801 2°50.678 9.5 336 14.1 101430 100
2007-06-11 05:32:34 51°20.819 2°50.673 9.8 335 14.1 101440 100
2007-06-11 05:32:39 51°20.836 2°50.667 10.1 335 14.1 101440 100
2007-06-11 05:32:44 51°20.854 2°50.662 9.8 336 14.1 101440 100
2007-06-11 05:32:49 51°20.871 2°50.656 9.5 336 14.1 101440 100
2007-06-11 05:32:54 51°20.889 2°50.651 9.8 336 14.1 101440 100
2007-06-11 05:32:59 51°20.906 2°50.645 9.8 336 14.1 101440 100
2007-06-11 05:33:04 51°20.923 2°50.64 9.3 335 14.1 101440 100
2007-06-11 05:33:09 51°20.941 2°50.634 10.1 336 14.1 101440 100
2007-06-11 05:33:15 51°20.962 2°50.628 9.8 335 14.1 101440 100
2007-06-11 05:33:19 51°20.976 2°50.624 9.6 337 14.1 101440 100
2007-06-11 05:33:24 51°20.993 2°50.618 9.3 336 14.1 101430 100
2007-06-11 05:33:30 51°21.014 2°50.612 9.3 338 14.1 101430 100
2007-06-11 05:33:35 51°21.031 2°50.606 10.7 336 14.1 101440 100
2007-06-11 05:33:40 51°21.049 2°50.6 10.6 337 14.1 101440 100
2007-06-11 05:33:45 51°21.066 2°50.594 10 337 14.1 101440 100
2007-06-11 05:33:50 51°21.084 2°50.588 10.3 337 14.1 101440 100
2007-06-11 05:33:55 51°21.101 2°50.581 9.9 337 14.1 101440 100
2007-06-11 05:34:00 51°21.119 2°50.575 10.2 277 14.1 101440 100
2007-06-11 05:34:05 51°21.136 2°50.566 10.2 337 14.1 101430 100
2007-06-11 05:34:10 51°21.153 2°50.558 9.7 337 14.1 101430 100
2007-06-11 05:34:15 51°21.17 2°50.548 9.6 339 14.1 101430 100
2007-06-11 05:34:20 51°21.187 2°50.539 9.2 338 14.1 101430 100
2007-06-11 05:34:25 51°21.203 2°50.526 9 340 14.1 101440 100
2007-06-11 05:34:30 51°21.219 2°50.514 9.2 337 14.1 101440 100
2007-06-11 05:34:35 51°21.235 2°50.5 10.3 338 14.1 101430 100
2007-06-11 05:34:40 51°21.251 2°50.486 10 337 14.1 101430 100
2007-06-11 05:34:45 51°21.267 2°50.471 10.3 337 14.1 101430 100
2007-06-11 05:34:50 51°21.282 2°50.457 10.5 338 14.1 101430 100
2007-06-11 05:34:55 51°21.298 2°50.442 10.7 339 14.1 101440 100
2007-06-11 05:35:00 51°21.313 2°50.426 9.4 341 14.1 101440 100
2007-06-11 05:35:05 51°21.329 2°50.411 9.7 340 14.1 101440 100
2007-06-11 05:35:10 51°21.344 2°50.394 9.6 341 14.1 101440 100
2007-06-11 05:35:15 51°21.359 2°50.378 9.5 341 14.1 101440 100
2007-06-11 05:35:20 51°21.373 2°50.359 9.3 341 14.1 101440 100
2007-06-11 05:35:25 51°21.387 2°50.341 9.7 342 14.1 101440 100
2007-06-11 05:35:30 51°21.401 2°50.321 9.3 341 14.1 101440 100
2007-06-11 05:35:35 51°21.414 2°50.301 8.9 342 14.1 101440 100
2007-06-11 05:35:40 51°21.428 2°50.281 9.2 341 14.1 101440 100
2007-06-11 05:35:45 51°21.442 2°50.261 9 341 14.1 101440 100
2007-06-11 05:35:50 51°21.455 2°50.24 8.9 341 14.1 101440 100
2007-06-11 05:35:55 51°21.469 2°50.22 8.6 340 14.1 101440 100
2007-06-11 05:36:00 51°21.482 2°50.198 9.3 280 14.1 101440 100
2007-06-11 05:36:05 51°21.495 2°50.177 9 342 14.1 101440 100
2007-06-11 05:36:10 51°21.508 2°50.156 9.5 339 14.1 101440 100
2007-06-11 05:36:15 51°21.521 2°50.135 9.3 339 14.1 101430 100
2007-06-11 05:36:20 51°21.534 2°50.114 9.7 341 14.1 101430 100
2007-06-11 05:36:25 51°21.547 2°50.092 9.7 340 14.1 101440 100
2007-06-11 05:36:30 51°21.561 2°50.071 9.2 339 14.1 101440 100
2007-06-11 05:36:35 51°21.574 2°50.051 9.5 341 14.1 101430 100
2007-06-11 05:36:40 51°21.587 2°50.03 9.2 339 14.1 101430 100
2007-06-11 05:36:45 51°21.6 2°50.01 9.3 340 14.1 101440 100
2007-06-11 05:36:50 51°21.613 2°49.989 9.8 340 14.1 101440 100
2007-06-11 05:36:55 51°21.626 2°49.969 9.2 340 14.1 101440 100
2007-06-11 05:37:00 51°21.639 2°49.949 9.2 339 14.1 101440 100
2007-06-11 05:37:05 51°21.652 2°49.928 9.2 339 14.1 101440 100
2007-06-11 05:37:10 51°21.665 2°49.908 8.6 339 14.1 101440 100
2007-06-11 05:37:15 51°21.677 2°49.888 8.6 339 14.1 101440 100
2007-06-11 05:37:20 51°21.69 2°49.867 8.6 341 14.1 101440 100
2007-06-11 05:37:25 51°21.703 2°49.847 9 339 14.1 101440 100
2007-06-11 05:37:30 51°21.716 2°49.827 8.5 340 14.1 101440 100
2007-06-11 05:37:35 51°21.729 2°49.807 8.2 339 14 101440 100
2007-06-11 05:37:40 51°21.742 2°49.787 8.1 340 14 101440 100
2007-06-11 05:37:45 51°21.755 2°49.767 8.7 340 14 101440 100
2007-06-11 05:37:50 51°21.768 2°49.747 8.4 340 14 101440 100
2007-06-11 05:37:55 51°21.781 2°49.727 8.9 341 14 101440 100
2007-06-11 05:38:00 51°21.794 2°49.706 9.7 281 14 101440 100
2007-06-11 05:38:05 51°21.807 2°49.686 9.2 340 14 101440 100
2007-06-11 05:38:10 51°21.82 2°49.666 9.2 341 14 101440 100
2007-06-11 05:38:15 51°21.833 2°49.646 9.5 343 14 101440 100
2007-06-11 05:38:20 51°21.846 2°49.626 8.9 343 14 101440 100
2007-06-11 05:38:25 51°21.86 2°49.606 8.7 343 14 101440 100
2007-06-11 05:38:29 51°21.87 2°49.59 9.4 343 14 101440 100
2007-06-11 05:38:35 51°21.886 2°49.566 8.9 343 14 101440 100
2007-06-11 05:38:40 51°21.899 2°49.547 9.1 344 14 101440 100
2007-06-11 05:38:45 51°21.912 2°49.527 8.7 344 14 101440 100
2007-06-11 05:38:50 51°21.926 2°49.508 8.7 343 14 101440 100
2007-06-11 05:38:55 51°21.939 2°49.488 8.3 344 14 101440 100
2007-06-11 05:39:00 51°21.952 2°49.469 8.2 344 14 101440 100
2007-06-11 05:39:05 51°21.965 2°49.449 8.1 344 14 101440 100
2007-06-11 05:39:10 51°21.978 2°49.43 8.6 343 14 101440 100
2007-06-11 05:39:15 51°21.991 2°49.41 8.4 344 14 101440 100
2007-06-11 05:39:20 51°22.004 2°49.389 8.4 345 14 101440 100
2007-06-11 05:39:25 51°22.016 2°49.369 8.2 344 14 101440 100
2007-06-11 05:39:30 51°22.029 2°49.349 8.4 344 14 101440 100
2007-06-11 05:39:35 51°22.042 2°49.328 8.1 346 14 101440 100
2007-06-11 05:39:40 51°22.055 2°49.308 8.2 346 14 101440 100
2007-06-11 05:39:45 51°22.067 2°49.287 8 346 14 101440 100
2007-06-11 05:39:50 51°22.079 2°49.266 7.8 345 14 101440 100
2007-06-11 05:39:55 51°22.092 2°49.246 8.2 348 14 101440 100
2007-06-11 05:40:00 51°22.105 2°49.225 8.5 282 14 101440 100
2007-06-11 05:40:05 51°22.117 2°49.205 8.5 344 14 101440 100
2007-06-11 05:40:10 51°22.13 2°49.184 8.7 344 14 101440 100
2007-06-11 05:40:15 51°22.143 2°49.164 8.2 344 14 101440 100
2007-06-11 05:40:20 51°22.155 2°49.143 8 343 14 101440 100
2007-06-11 05:40:25 51°22.167 2°49.122 7.8 345 14 101440 100
2007-06-11 05:40:30 51°22.18 2°49.102 8.5 344 14 101440 100
2007-06-11 05:40:35 51°22.193 2°49.081 8.6 343 14 101440 100
2007-06-11 05:40:40 51°22.205 2°49.061 8.4 343 14 101440 100
2007-06-11 05:40:45 51°22.218 2°49.04 7.9 344 14 101440 100
2007-06-11 05:40:50 51°22.231 2°49.02 8 344 14 101440 100
2007-06-11 05:40:55 51°22.243 2°48.999 8.4 342 14 101450 100
2007-06-11 05:41:00 51°22.256 2°48.978 9.2 344 14 101450 100
2007-06-11 05:41:05 51°22.268 2°48.957 8.8 344 14 101440 100
2007-06-11 05:41:10 51°22.281 2°48.936 9 344 14 101440 100
2007-06-11 05:41:15 51°22.293 2°48.915 8.8 345 14 101440 100
2007-06-11 05:41:20 51°22.305 2°48.894 8.5 346 14 101440 100
2007-06-11 05:41:25 51°22.317 2°48.873 8.8 344 14 101440 100
2007-06-11 05:41:30 51°22.33 2°48.853 8.6 344 14 101440 100
2007-06-11 05:41:35 51°22.342 2°48.832 8.6 344 14 101440 100
2007-06-11 05:41:40 51°22.355 2°48.812 8.6 344 14 101440 100
2007-06-11 05:41:45 51°22.368 2°48.792 8 343 14 101440 100
2007-06-11 05:41:50 51°22.38 2°48.772 8.4 343 14 101440 100
2007-06-11 05:41:55 51°22.393 2°48.752 7.8 344 14 101440 100
2007-06-11 05:42:00 51°22.405 2°48.731 7.6 283 14 101440 100
2007-06-11 05:42:05 51°22.418 2°48.711 7.7 344 14 101440 100
2007-06-11 05:42:10 51°22.43 2°48.69 7.9 344 14 101440 100
2007-06-11 05:42:15 51°22.443 2°48.67 8.7 343 14 101440 100
2007-06-11 05:42:20 51°22.455 2°48.65 8.6 344 14 101440 100
2007-06-11 05:42:25 51°22.468 2°48.629 9 346 14 101440 100
2007-06-11 05:42:30 51°22.48 2°48.608 9.2 346 14 101440 100
2007-06-11 05:42:35 51°22.492 2°48.588 8.4 344 14 101440 100
2007-06-11 05:42:40 51°22.504 2°48.567 8.3 344 14 101440 100
2007-06-11 05:42:45 51°22.516 2°48.546 8.2 343 14 101440 100
2007-06-11 05:42:50 51°22.529 2°48.526 8.1 343 14 101440 100
2007-06-11 05:42:55 51°22.541 2°48.505 8.2 343 14 101440 100
2007-06-11 05:43:00 51°22.553 2°48.485 8.1 345 14 101440 100
2007-06-11 05:43:05 51°22.565 2°48.464 8.5 344 14 101440 100
2007-06-11 05:43:10 51°22.576 2°48.443 8.5 345 14 101440 100
2007-06-11 05:43:15 51°22.588 2°48.421 8.1 345 14 101440 100
2007-06-11 05:43:20 51°22.599 2°48.399 8.8 344 14 101440 100
2007-06-11 05:43:25 51°22.61 2°48.377 8.4 342 14 101450 100
2007-06-11 05:43:30 51°22.621 2°48.354 8.8 345 14 101450 100
2007-06-11 05:43:35 51°22.631 2°48.331 8.4 344 13.9 101440 100
2007-06-11 05:43:40 51°22.642 2°48.308 7.7 344 13.9 101440 100
2007-06-11 05:43:45 51°22.652 2°48.285 8.6 343 14 101440 100
2007-06-11 05:43:50 51°22.663 2°48.261 8.3 344 14 101440 100
2007-06-11 05:43:55 51°22.673 2°48.238 7.9 343 14 101440 100
2007-06-11 05:44:00 51°22.684 2°48.215 7.8 279 14 101440 100
2007-06-11 05:44:05 51°22.695 2°48.192 7.7 344 14 101440 100
2007-06-11 05:44:10 51°22.706 2°48.169 8.1 344 14 101440 100
2007-06-11 05:44:15 51°22.716 2°48.147 7.9 342 13.9 101440 100
2007-06-11 05:44:20 51°22.727 2°48.123 8.8 343 13.9 101440 100
2007-06-11 05:44:25 51°22.738 2°48.1 8.3 343 13.9 101440 100
2007-06-11 05:44:30 51°22.749 2°48.077 8 343 13.9 101440 100
2007-06-11 05:44:35 51°22.759 2°48.054 8.1 343 13.9 101440 100
2007-06-11 05:44:40 51°22.77 2°48.031 7.7 342 13.9 101440 100
2007-06-11 05:44:45 51°22.781 2°48.008 7.8 343 14 101440 100
2007-06-11 05:44:50 51°22.792 2°47.985 7.7 342 14 101440 100
2007-06-11 05:44:55 51°22.803 2°47.962 7.5 343 13.9 101440 100
2007-06-11 05:45:00 51°22.814 2°47.939 7.6 342 13.9 101440 100
2007-06-11 05:45:05 51°22.824 2°47.916 7.6 343 13.9 101440 100
2007-06-11 05:45:10 51°22.835 2°47.892 7.6 341 13.9 101440 100
2007-06-11 05:45:15 51°22.845 2°47.868 8.1 344 13.9 101450 100
2007-06-11 05:45:20 51°22.856 2°47.844 8.8 345 13.9 101450 100
2007-06-11 05:45:25 51°22.866 2°47.82 8.4 345 13.9 101450 100
2007-06-11 05:45:30 51°22.876 2°47.795 8.2 345 13.9 101450 100
2007-06-11 05:45:35 51°22.886 2°47.771 8.3 344 13.9 101440 100
2007-06-11 05:45:40 51°22.896 2°47.747 8.2 343 13.9 101440 100
2007-06-11 05:45:45 51°22.906 2°47.722 8.4 343 13.9 101440 100
2007-06-11 05:45:50 51°22.916 2°47.697 8 343 13.9 101440 100
2007-06-11 05:45:55 51°22.926 2°47.673 7.9 341 13.9 101440 100
2007-06-11 05:46:00 51°22.936 2°47.648 7.5 281 13.9 101440 100
2007-06-11 05:46:05 51°22.946 2°47.623 7.9 340 14 101440 100
2007-06-11 05:46:10 51°22.956 2°47.598 8 342 14 101440 100
2007-06-11 05:46:15 51°22.966 2°47.574 8 341 13.9 101440 100
2007-06-11 05:46:20 51°22.976 2°47.549 7.9 343 13.9 101440 100
2007-06-11 05:46:25 51°22.986 2°47.525 7.6 339 13.9 101440 100
2007-06-11 05:46:30 51°22.994 2°47.498 7.9 340 13.9 101440 100
2007-06-11 05:46:35 51°23.002 2°47.472 8 341 13.9 101440 100
2007-06-11 05:46:40 51°23.009 2°47.445 7.9 342 13.9 101440 100
2007-06-11 05:46:45 51°23.016 2°47.418 7.7 343 13.9 101440 100
2007-06-11 05:46:50 51°23.022 2°47.39 7.1 343 13.9 101440 100
2007-06-11 05:46:55 51°23.028 2°47.362 7.3 342 13.9 101450 100
2007-06-11 05:47:00 51°23.034 2°47.333 7.5 342 13.9 101450 100
2007-06-11 05:47:05 51°23.039 2°47.305 7.6 342 13.9 101440 100
2007-06-11 05:47:10 51°23.044 2°47.276 7.3 342 13.9 101440 100
2007-06-11 05:47:15 51°23.05 2°47.247 7.4 342 13.9 101440 100
2007-06-11 05:47:20 51°23.055 2°47.219 6.9 342 13.9 101440 100
2007-06-11 05:47:25 51°23.06 2°47.19 6.7 342 13.9 101450 100
2007-06-11 05:47:30 51°23.064 2°47.161 7.6 340 13.9 101450 100
2007-06-11 05:47:35 51°23.07 2°47.132 7.5 340 13.9 101440 100
2007-06-11 05:47:40 51°23.074 2°47.103 8.6 341 13.9 101440 100
2007-06-11 05:47:45 51°23.079 2°47.074 7.8 343 13.9 101450 100
2007-06-11 05:47:50 51°23.084 2°47.045 7.3 342 13.9 101450 100
2007-06-11 05:47:55 51°23.089 2°47.016 7.7 341 13.9 101450 100
2007-06-11 05:48:00 51°23.094 2°46.987 7.5 285 13.9 101450 100
2007-06-11 05:48:05 51°23.1 2°46.958 7.3 342 13.9 101450 100
2007-06-11 05:48:10 51°23.105 2°46.93 7.8 343 13.9 101450 100
2007-06-11 05:48:15 51°23.11 2°46.901 7.7 339 13.9 101450 100
2007-06-11 05:48:20 51°23.116 2°46.872 7.4 342 13.9 101450 100
2007-06-11 05:48:25 51°23.121 2°46.844 7.3 339 13.9 101450 100
2007-06-11 05:48:30 51°23.127 2°46.815 8.4 342 13.9 101450 100
2007-06-11 05:48:35 51°23.132 2°46.787 7.9 343 13.9 101450 100
2007-06-11 05:48:40 51°23.138 2°46.758 7.4 342 13.9 101450 100
2007-06-11 05:48:45 51°23.143 2°46.73 7.4 341 13.9 101450 100
2007-06-11 05:48:50 51°23.148 2°46.701 7.6 341 13.9 101450 100
2007-06-11 05:48:55 51°23.154 2°46.673 7.1 342 13.9 101450 100
2007-06-11 05:49:00 51°23.158 2°46.644 7.2 340 13.9 101450 100
2007-06-11 05:49:05 51°23.164 2°46.616 6.9 341 13.9 101450 100
2007-06-11 05:49:09 51°23.168 2°46.593 7.7 340 13.9 101450 100
2007-06-11 05:49:15 51°23.174 2°46.559 7.8 341 13.9 101450 100
2007-06-11 05:49:20 51°23.18 2°46.53 6.9 340 13.9 101450 100
2007-06-11 05:49:25 51°23.185 2°46.502 7.6 339 13.9 101450 100
2007-06-11 05:49:30 51°23.191 2°46.474 7.7 341 13.9 101450 100
2007-06-11 05:49:35 51°23.196 2°46.445 7.4 341 13.9 101450 100
2007-06-11 05:49:40 51°23.202 2°46.417 8.1 340 13.9 101450 100
2007-06-11 05:49:45 51°23.208 2°46.389 7.8 343 13.9 101450 100
2007-06-11 05:49:50 51°23.214 2°46.361 7.6 341 13.9 101450 100
2007-06-11 05:49:55 51°23.22 2°46.333 7.4 340 13.8 101450 100
2007-06-11 05:50:00 51°23.225 2°46.305 7.4 279 13.8 101450 100
2007-06-11 05:50:05 51°23.23 2°46.277 7.5 343 13.9 101450 100
2007-06-11 05:50:10 51°23.234 2°46.248 7.1 339 13.9 101450 100
2007-06-11 05:50:15 51°23.237 2°46.219 6.5 342 13.9 101450 100
2007-06-11 05:50:20 51°23.24 2°46.19 7.4 341 13.9 101450 100
2007-06-11 05:50:25 51°23.242 2°46.16 7.9 344 13.9 101450 100
2007-06-11 05:50:30 51°23.244 2°46.13 6.9 342 13.9 101450 100
2007-06-11 05:50:35 51°23.245 2°46.101 7 342 13.9 101460 100
2007-06-11 05:50:40 51°23.247 2°46.071 7.3 342 13.9 101460 100
2007-06-11 05:50:45 51°23.248 2°46.041 7.3 340 13.9 101460 100
2007-06-11 05:50:50 51°23.249 2°46.011 7.1 340 13.9 101460 100
2007-06-11 05:50:55 51°23.25 2°45.981 7.1 340 13.9 101450 100
2007-06-11 05:51:00 51°23.251 2°45.95 6.6 338 13.9 101450 100
2007-06-11 05:51:05 51°23.253 2°45.92 6.7 339 13.9 101460 100
2007-06-11 05:51:10 51°23.254 2°45.89 6.5 340 13.9 101460 100
2007-06-11 05:51:15 51°23.255 2°45.86 7.1 339 13.9 101450 100
2007-06-11 05:51:20 51°23.256 2°45.83 6.8 339 13.9 101450 100
2007-06-11 05:51:25 51°23.258 2°45.8 7.2 337 13.9 101450 100
2007-06-11 05:51:30 51°23.259 2°45.769 6.9 338 13.9 101450 100
2007-06-11 05:51:35 51°23.26 2°45.739 6.1 336 13.9 101460 100
2007-06-11 05:51:40 51°23.261 2°45.709 7.1 338 13.9 101460 100
2007-06-11 05:51:45 51°23.262 2°45.678 7 338 13.9 101460 100
2007-06-11 05:51:50 51°23.264 2°45.648 7.4 341 13.9 101460 100
2007-06-11 05:51:55 51°23.265 2°45.618 6.6 340 13.8 101450 100
2007-06-11 05:52:00 51°23.266 2°45.587 6.9 283 13.8 101450 100
2007-06-11 05:52:05 51°23.268 2°45.557 7 340 13.8 101460 100
2007-06-11 05:52:10 51°23.271 2°45.527 7 340 13.8 101460 100
2007-06-11 05:52:15 51°23.274 2°45.497 7.8 339 13.8 101450 100
2007-06-11 05:52:20 51°23.277 2°45.467 7.7 338 13.8 101450 100
2007-06-11 05:52:25 51°23.281 2°45.437 7.5 338 13.8 101460 100
2007-06-11 05:52:30 51°23.285 2°45.408 7.7 341 13.8 101460 100
2007-06-11 05:52:35 51°23.289 2°45.378 7.5 340 13.9 101460 100
2007-06-11 05:52:40 51°23.293 2°45.349 7.5 341 13.9 101460 100
2007-06-11 05:52:45 51°23.298 2°45.319 6.9 340 13.8 101460 100
2007-06-11 05:52:50 51°23.302 2°45.29 6.9 341 13.8 101460 100
2007-06-11 05:52:55 51°23.306 2°45.26 7.1 340 13.9 101460 100
2007-06-11 05:53:00 51°23.311 2°45.231 6.9 339 13.9 101460 100
2007-06-11 05:53:05 51°23.315 2°45.201 7.3 337 13.9 101460 100
2007-06-11 05:53:10 51°23.32 2°45.172 7.4 339 13.9 101460 100
2007-06-11 05:53:15 51°23.324 2°45.142 7.7 339 13.8 101460 100
2007-06-11 05:53:20 51°23.329 2°45.113 7.3 339 13.8 101460 100
2007-06-11 05:53:25 51°23.333 2°45.084 7.2 339 13.8 101460 100
2007-06-11 05:53:30 51°23.337 2°45.054 7.6 339 13.8 101460 100
2007-06-11 05:53:35 51°23.342 2°45.025 7 340 13.8 101460 100
2007-06-11 05:53:40 51°23.346 2°44.995 7.1 339 13.8 101460 100
2007-06-11 05:53:45 51°23.35 2°44.966 7.2 340 13.8 101460 100
2007-06-11 05:53:50 51°23.354 2°44.936 6.9 339 13.8 101460 100
2007-06-11 05:53:55 51°23.359 2°44.907 6.8 339 13.8 101460 100
2007-06-11 05:54:00 51°23.363 2°44.877 6.8 278 13.8 101460 100
2007-06-11 05:54:05 51°23.367 2°44.848 6.6 338 13.8 101460 100
2007-06-11 05:54:10 51°23.372 2°44.818 6.6 339 13.8 101460 100
2007-06-11 05:54:15 51°23.376 2°44.789 6.5 336 13.8 101460 100
2007-06-11 05:54:20 51°23.381 2°44.759 6.2 337 13.8 101460 100
2007-06-11 05:54:25 51°23.386 2°44.73 5.9 337 13.8 101460 100
2007-06-11 05:54:30 51°23.39 2°44.7 6.4 337 13.8 101460 100
2007-06-11 05:54:35 51°23.394 2°44.67 6.6 336 13.8 101470 100
2007-06-11 05:54:40 51°23.399 2°44.641 6.6 340 13.8 101470 100
2007-06-11 05:54:45 51°23.403 2°44.611 6.8 337 13.8 101470 100
2007-06-11 05:54:50 51°23.408 2°44.582 7 337 13.8 101470 100
2007-06-11 05:54:55 51°23.412 2°44.552 6.5 338 13.8 101470 100
2007-06-11 05:55:00 51°23.417 2°44.522 7.1 339 13.8 101470 100
2007-06-11 05:55:05 51°23.421 2°44.492 6.8 338 13.8 101460 100
2007-06-11 05:55:10 51°23.426 2°44.463 6.7 339 13.8 101460 100
2007-06-11 05:55:15 51°23.43 2°44.433 6.4 339 13.8 101470 100
2007-06-11 05:55:20 51°23.435 2°44.403 6.6 337 13.8 101470 100
2007-06-11 05:55:25 51°23.439 2°44.373 6.9 337 13.8 101470 100
2007-06-11 05:55:30 51°23.444 2°44.344 6.4 337 13.8 101470 100
2007-06-11 05:55:35 51°23.448 2°44.314 6.8 338 13.8 101470 100
2007-06-11 05:55:40 51°23.453 2°44.286 6.9 338 13.8 101470 100
2007-06-11 05:55:45 51°23.459 2°44.258 6.9 338 13.8 101460 100
2007-06-11 05:55:50 51°23.467 2°44.233 7.4 336 13.8 101460 100
2007-06-11 05:55:55 51°23.476 2°44.21 6.8 337 13.8 101470 100
2007-06-11 05:56:00 51°23.487 2°44.188 7 284 13.8 101470 100
2007-06-11 05:56:05 51°23.497 2°44.166 7.5 336 13.8 101470 100
2007-06-11 05:56:10 51°23.508 2°44.144 7.4 337 13.8 101470 100
2007-06-11 05:56:15 51°23.519 2°44.122 7.1 338 13.8 101470 100
2007-06-11 05:56:20 51°23.529 2°44.101 6.5 336 13.8 101470 100
2007-06-11 05:56:25 51°23.538 2°44.079 6.9 337 13.8 101470 100
2007-06-11 05:56:30 51°23.548 2°44.058 6.8 336 13.8 101470 100
2007-06-11 05:56:35 51°23.556 2°44.036 6.7 335 13.8 101470 100
2007-06-11 05:56:40 51°23.567 2°44.017 6.9 337 13.8 101470 100
2007-06-11 05:56:45 51°23.577 2°44 6.9 338 13.8 101470 100
2007-06-11 05:56:50 51°23.589 2°43.985 6.2 336 13.8 101470 100
2007-06-11 05:56:55 51°23.6 2°43.973 6 337 13.8 101470 100
2007-06-11 05:57:00 51°23.611 2°43.964 6.2 336 13.8 101470 100
2007-06-11 05:57:05 51°23.621 2°43.957 5.8 336 13.8 101470 100
2007-06-11 05:57:10 51°23.631 2°43.952 5.8 336 13.8 101470 100
2007-06-11 05:57:15 51°23.64 2°43.949 5.4 334 13.8 101460 100
2007-06-11 05:57:20 51°23.649 2°43.947 5.3 333 13.8 101460 100
2007-06-11 05:57:25 51°23.658 2°43.946 4.9 334 13.7 101470 100
2007-06-11 05:57:30 51°23.666 2°43.946 4.9 334 13.7 101470 100
2007-06-11 05:57:35 51°23.674 2°43.947 4.9 333 13.8 101470 100
2007-06-11 05:57:40 51°23.682 2°43.949 4.6 332 13.8 101470 100
2007-06-11 05:57:45 51°23.69 2°43.953 4.5 331 13.8 101470 100
2007-06-11 05:57:50 51°23.697 2°43.958 4.7 329 13.8 101470 100
2007-06-11 05:57:55 51°23.705 2°43.964 4.8 328 13.7 101480 100
2007-06-11 05:58:00 51°23.711 2°43.971 4.4 284 13.7 101480 100
2007-06-11 05:58:05 51°23.717 2°43.98 4.3 328 13.7 101470 100
2007-06-11 05:58:10 51°23.723 2°43.99 4.5 327 13.7 101470 100
2007-06-11 05:58:15 51°23.727 2°44 4.5 327 13.7 101480 100
2007-06-11 05:58:20 51°23.732 2°44.011 4.1 303 13.7 101480 100
2007-06-11 05:58:25 51°23.737 2°44.022 4.5 327 13.7 101470 100
2007-06-11 05:58:30 51°23.742 2°44.034 5.4 303 13.7 101470 100
2007-06-11 05:58:35 51°23.747 2°44.044 5.1 325 13.7 101470 100
2007-06-11 05:58:40 51°23.753 2°44.054 5 323 13.7 101470 100
2007-06-11 05:58:45 51°23.759 2°44.063 4.9 322 13.7 101470 100
2007-06-11 05:58:50 51°23.764 2°44.072 4.6 323 13.7 101470 100
2007-06-11 05:58:55 51°23.77 2°44.08 4.6 325 13.7 101470 100
2007-06-11 05:59:00 51°23.775 2°44.088 4.8 307 13.7 101470 100
2007-06-11 05:59:05 51°23.781 2°44.095 4.8 325 13.7 101470 100
2007-06-11 05:59:10 51°23.787 2°44.102 4.8 303 13.7 101470 100
2007-06-11 05:59:15 51°23.792 2°44.109 4.4 326 13.7 101470 100
2007-06-11 05:59:20 51°23.798 2°44.115 4.2 306 13.7 101470 100
2007-06-11 05:59:25 51°23.803 2°44.121 4.4 325 13.7 101470 100
2007-06-11 05:59:30 51°23.808 2°44.127 4.5 326 13.7 101470 100
2007-06-11 05:59:35 51°23.812 2°44.133 4.4 325 13.7 101470 100
2007-06-11 05:59:40 51°23.817 2°44.138 4.1 304 13.7 101470 100
2007-06-11 05:59:45 51°23.821 2°44.144 3.8 324 13.8 101470 100
2007-06-11 05:59:50 51°23.825 2°44.149 3.8 303 13.8 101470 100
2007-06-11 05:59:55 51°23.829 2°44.155 3.6 321 13.8 101480 100
2007-06-11 06:00:00 51°23.832 2°44.16 3.3 283 13.8 101480 100
2007-06-11 06:00:05 51°23.835 2°44.166 3.2 319 13.8 101470 100
2007-06-11 06:00:10 51°23.838 2°44.171 3.4 309 13.8 101470 100
2007-06-11 06:00:15 51°23.841 2°44.177 3.3 320 13.8 101470 100
2007-06-11 06:00:20 51°23.843 2°44.182 3 302 13.8 101470 100
2007-06-11 06:00:25 51°23.845 2°44.187 2.9 320 13.8 101470 100
2007-06-11 06:00:30 51°23.848 2°44.193 2.8 305 13.8 101470 100
2007-06-11 06:00:35 51°23.85 2°44.198 2.6 319 13.8 101480 100
2007-06-11 06:00:40 51°23.852 2°44.202 2.6 306 13.8 101480 100
2007-06-11 06:00:45 51°23.855 2°44.207 2.7 317 13.7 101470 100
2007-06-11 06:00:50 51°23.857 2°44.211 2.5 304 13.7 101470 100
2007-06-11 06:00:55 51°23.859 2°44.215 2.5 320 13.8 101480 100
2007-06-11 06:01:00 51°23.862 2°44.219 2.6 323 13.8 101480 100
2007-06-11 06:01:05 51°23.865 2°44.222 2.7 319 13.7 101470 100
2007-06-11 06:01:10 51°23.867 2°44.225 2.7 307 13.7 101470 100
2007-06-11 06:01:15 51°23.87 2°44.228 2.6 323 13.7 101470 100
2007-06-11 06:01:20 51°23.872 2°44.231 2.5 308 13.7 101470 100
2007-06-11 06:01:25 51°23.875 2°44.234 2.6 321 13.7 101480 100
2007-06-11 06:01:30 51°23.877 2°44.237 2.8 302 13.7 101480 100
2007-06-11 06:01:35 51°23.88 2°44.24 2.9 324 13.7 101480 100
2007-06-11 06:01:40 51°23.882 2°44.244 2.7 308 13.7 101480 100
2007-06-11 06:01:45 51°23.884 2°44.248 2.6 320 13.7 101480 100
2007-06-11 06:01:50 51°23.886 2°44.253 2.8 306 13.7 101480 100
2007-06-11 06:01:55 51°23.888 2°44.257 3 318 13.7 101480 100
2007-06-11 06:02:00 51°23.89 2°44.262 3.3 278 13.7 101480 100
2007-06-11 06:02:05 51°23.892 2°44.266 3 316 13.7 101480 100
2007-06-11 06:02:10 51°23.894 2°44.271 2.8 302 13.7 101480 100
2007-06-11 06:02:15 51°23.896 2°44.275 2.8 319 13.7 101480 100
2007-06-11 06:02:20 51°23.898 2°44.279 2.9 322 13.7 101480 100
2007-06-11 06:02:25 51°23.9 2°44.282 2.8 322 13.7 101480 100
2007-06-11 06:02:30 51°23.903 2°44.286 2.4 302 13.7 101480 100
2007-06-11 06:02:35 51°23.906 2°44.289 2.5 323 13.8 101480 100
2007-06-11 06:02:40 51°23.909 2°44.291 2.5 302 13.8 101480 100
2007-06-11 06:02:45 51°23.912 2°44.294 2.6 326 13.8 101480 100
2007-06-11 06:02:50 51°23.915 2°44.297 2.6 328 13.8 101480 100
2007-06-11 06:02:55 51°23.918 2°44.3 2.5 323 13.8 101480 100
2007-06-11 06:03:00 51°23.921 2°44.302 2.1 324 13.8 101480 100
2007-06-11 06:03:05 51°23.924 2°44.306 2 322 13.8 101480 100
2007-06-11 06:03:09 51°23.926 2°44.308 1.9 307 13.8 101480 100
2007-06-11 06:03:15 51°23.929 2°44.313 2.2 322 13.8 101480 100
2007-06-11 06:03:20 51°23.931 2°44.317 1.9 307 13.8 101480 100
2007-06-11 06:03:25 51°23.933 2°44.32 1.8 318 13.8 101480 100
2007-06-11 06:03:30 51°23.935 2°44.324 1.8 305 13.8 101480 100
2007-06-11 06:03:35 51°23.936 2°44.327 1.7 316 13.8 101480 100
2007-06-11 06:03:40 51°23.938 2°44.331 1.8 305 13.8 101480 100
2007-06-11 06:03:45 51°23.939 2°44.334 1.6 27 13.8 101480 100
2007-06-11 06:03:50 51°23.94 2°44.338 1.7 302 13.8 101480 100
2007-06-11 06:03:55 51°23.942 2°44.341 1.7 316 13.7 101480 100
2007-06-11 06:04:00 51°23.943 2°44.343 1.6 282 13.7 101480 100
2007-06-11 06:04:05 51°23.945 2°44.346 1.7 315 13.8 101480 100
2007-06-11 06:04:10 51°23.946 2°44.349 1.4 308 13.8 101480 100
2007-06-11 06:04:15 51°23.948 2°44.351 1.5 317 13.8 101480 100
2007-06-11 06:04:20 51°23.949 2°44.354 1.4 307 13.8 101480 100
2007-06-11 06:04:25 51°23.951 2°44.355 1.6 26 13.8 101490 100
2007-06-11 06:04:30 51°23.953 2°44.357 1.5 305 13.8 101490 100
2007-06-11 06:04:35 51°23.955 2°44.359 1.4 19 13.8 101480 100
2007-06-11 06:04:40 51°23.957 2°44.36 1.5 307 13.8 101480 100
2007-06-11 06:04:45 51°23.959 2°44.362 1.5 23 13.8 101490 100
2007-06-11 06:04:50 51°23.961 2°44.363 1.7 303 13.8 101490 100
2007-06-11 06:04:55 51°23.962 2°44.364 1.9 25 13.8 101480 100
2007-06-11 06:05:00 51°23.964 2°44.364 2.1 307 13.8 101480 100
2007-06-11 06:05:05 51°23.966 2°44.364 1.6 324 13.8 101490 100
2007-06-11 06:05:10 51°23.968 2°44.364 1.6 340 13.8 101490 100
2007-06-11 06:05:15 51°23.97 2°44.364 1.2 348 13.8 101480 100
2007-06-11 06:05:20 51°23.972 2°44.364 1.6 346 13.8 101480 100
2007-06-11 06:05:25 51°23.974 2°44.364 1.6 342 13.8 101480 100
2007-06-11 06:05:30 51°23.976 2°44.363 1.9 338 13.8 101480 100
2007-06-11 06:05:35 51°23.978 2°44.362 2.2 338 13.8 101480 100
2007-06-11 06:05:40 51°23.979 2°44.362 2.2 339 13.8 101480 100
2007-06-11 06:05:45 51°23.981 2°44.361 2.2 337 13.8 101490 100
2007-06-11 06:05:50 51°23.982 2°44.36 2.2 343 13.8 101490 100
2007-06-11 06:05:55 51°23.984 2°44.36 2.4 343 13.8 101480 100
2007-06-11 06:06:00 51°23.985 2°44.359 1.8 278 13.8 101480 100
2007-06-11 06:06:05 51°23.987 2°44.358 1.9 342 13.8 101480 100
2007-06-11 06:06:10 51°23.988 2°44.357 2 345 13.8 101480 100
2007-06-11 06:06:15 51°23.99 2°44.356 2 343 13.8 101490 100
2007-06-11 06:06:20 51°23.991 2°44.355 1.9 346 13.8 101490 100
2007-06-11 06:06:25 51°23.993 2°44.354 1.9 348 13.8 101480 100
2007-06-11 06:06:30 51°23.994 2°44.353 1.9 349 13.8 101480 100
2007-06-11 06:06:35 51°23.995 2°44.352 2 345 13.8 101480 100
2007-06-11 06:06:40 51°23.996 2°44.351 1.9 344 13.8 101480 100
2007-06-11 06:06:45 51°23.998 2°44.35 1.9 344 13.8 101490 100
2007-06-11 06:06:50 51°23.999 2°44.349 1.7 349 13.8 101490 100
2007-06-11 06:06:55 51°24 2°44.348 1.7 349 13.8 101480 100
2007-06-11 06:07:00 51°24.001 2°44.347 1.6 346 13.8 101480 100
2007-06-11 06:07:05 51°24.002 2°44.346 1.6 347 13.8 101480 100
2007-06-11 06:07:10 51°24.003 2°44.344 1.6 346 13.8 101480 100
2007-06-11 06:07:15 51°24.005 2°44.343 1.5 347 13.8 101490 100
2007-06-11 06:07:20 51°24.006 2°44.342 1.6 348 13.8 101490 100
2007-06-11 06:07:25 51°24.006 2°44.341 1.7 346 13.8 101490 100
2007-06-11 06:07:30 51°24.007 2°44.34 1.7 336 13.8 101490 100
2007-06-11 06:07:35 51°24.008 2°44.339 1.8 340 13.8 101490 100
2007-06-11 06:07:40 51°24.009 2°44.338 1.8 334 13.8 101490 100
2007-06-11 06:07:45 51°24.01 2°44.337 1.7 340 13.8 101490 100
2007-06-11 06:07:50 51°24.01 2°44.336 1.8 341 13.8 101490 100
2007-06-11 06:07:55 51°24.011 2°44.335 1.4 342 13.8 101490 100
2007-06-11 06:08:00 51°24.012 2°44.334 1.6 278 13.8 101490 100
2007-06-11 06:08:05 51°24.013 2°44.333 1.3 329 13.8 101490 100
2007-06-11 06:08:10 51°24.013 2°44.332 1.7 331 13.8 101490 100
2007-06-11 06:08:15 51°24.014 2°44.331 1.6 333 13.8 101490 100
2007-06-11 06:08:20 51°24.015 2°44.33 1.5 331 13.8 101490 100
2007-06-11 06:08:25 51°24.016 2°44.329 1.6 332 13.8 101490 100
2007-06-11 06:08:30 51°24.016 2°44.328 1.5 331 13.8 101490 100
2007-06-11 06:08:35 51°24.017 2°44.327 1.5 331 13.8 101490 100
2007-06-11 06:08:40 51°24.018 2°44.326 1.7 325 13.8 101490 100
2007-06-11 06:08:45 51°24.019 2°44.325 1.9 329 13.8 101490 100
2007-06-11 06:08:50 51°24.02 2°44.325 1.8 328 13.8 101490 100
2007-06-11 06:08:55 51°24.021 2°44.323 1.8 327 13.8 101490 100
2007-06-11 06:09:00 51°24.022 2°44.322 2 331 13.8 101490 100
2007-06-11 06:09:05 51°24.023 2°44.322 2.1 332 13.8 101490 100
2007-06-11 06:09:09 51°24.024 2°44.321 2.4 333 13.8 101490 100
2007-06-11 06:09:15 51°24.026 2°44.319 2.3 332 13.8 101490 100
2007-06-11 06:09:20 51°24.027 2°44.318 1.9 334 13.8 101490 100
2007-06-11 06:09:25 51°24.029 2°44.317 1.9 336 13.8 101490 100
2007-06-11 06:09:30 51°24.03 2°44.315 2.1 336 13.8 101490 100
2007-06-11 06:09:35 51°24.032 2°44.313 2.1 337 13.8 101490 100
2007-06-11 06:09:40 51°24.034 2°44.311 2.1 339 13.8 101490 100
2007-06-11 06:09:45 51°24.035 2°44.309 2 341 13.8 101490 100
2007-06-11 06:09:50 51°24.037 2°44.307 2 342 13.8 101490 100
2007-06-11 06:09:55 51°24.039 2°44.304 2 342 13.8 101490 100
2007-06-11 06:10:00 51°24.04 2°44.301 1.8 277 13.8 101490 100
2007-06-11 06:10:05 51°24.042 2°44.299 2 344 13.8 101490 100
2007-06-11 06:10:10 51°24.043 2°44.296 1.9 346 13.8 101490 100
2007-06-11 06:10:15 51°24.045 2°44.292 2 348 13.7 101490 100